| time (UTC) | temp F | wind direction | speed MPH | gust MPH | rain 1hr in | rain 24hr in | rain mn in | humidity % | barometer mb |
| 20260502220122 | 76 | 301 | 2.0 | 2.0 | 0.00 | 0.00 | 0.00 | 35 | 1020.4 |
| 20260502215620 | 76 | 337 | 3.0 | 5.0 | 0.00 | 0.00 | 0.00 | 37 | 1020.4 |
| 20260502215116 | 76 | 319 | 6.0 | 7.0 | 0.00 | 0.00 | 0.00 | 36 | 1020.5 |
| 20260502214613 | 76 | 12 | 5.0 | 6.0 | 0.00 | 0.00 | 0.00 | 36 | 1020.5 |
| 20260502214111 | 76 | 310 | 5.0 | 6.0 | 0.00 | 0.00 | 0.00 | 36 | 1020.4 |
| 20260502213608 | 75 | 356 | 3.0 | 5.0 | 0.00 | 0.00 | 0.00 | 40 | 1020.4 |
| 20260502213105 | 75 | 62 | 5.0 | 7.0 | 0.00 | 0.00 | 0.00 | 39 | 1020.6 |
| 20260502212604 | 75 | 343 | 7.0 | 8.0 | 0.00 | 0.00 | 0.00 | 33 | 1020.7 |
| 20260502212102 | 77 | 288 | 5.0 | 6.0 | 0.00 | 0.00 | 0.00 | 38 | 1020.6 |
| 20260502211556 | 77 | 292 | 3.0 | 5.0 | 0.00 | 0.00 | 0.00 | 35 | 1020.9 |
| 20260502211053 | 76 | 223 | 2.0 | 3.0 | 0.00 | 0.00 | 0.00 | 32 | 1020.9 |
| 20260502210551 | 76 | 277 | 3.0 | 5.0 | 0.00 | 0.00 | 0.00 | 35 | 1021.0 |
| 20260502210048 | 77 | 3 | 7.0 | 9.0 | 0.00 | 0.00 | 0.00 | 35 | 1021.1 |
| 20260502205544 | 77 | 353 | 1.0 | 2.0 | 0.00 | 0.00 | 0.00 | 34 | 1021.1 |
| 20260502205042 | 76 | 159 | 1.0 | 2.0 | 0.00 | 0.00 | 0.00 | 35 | 1021.0 |
| 20260502204538 | 75 | 325 | 4.0 | 6.0 | 0.00 | 0.00 | 0.00 | 35 | 1021.1 |
| 20260502204036 | 75 | 352 | 3.0 | 3.0 | 0.00 | 0.00 | 0.00 | 35 | 1021.2 |
| 20260502203532 | 76 | 8 | 6.0 | 8.0 | 0.00 | 0.00 | 0.00 | 33 | 1021.4 |
| 20260502203029 | 76 | 231 | 2.0 | 2.0 | 0.00 | 0.00 | 0.00 | 40 | 1021.4 |
| 20260502202525 | 76 | 254 | 3.0 | 3.0 | 0.00 | 0.00 | 0.00 | 33 | 1021.5 |
| 20260502202024 | 76 | 283 | 2.0 | 2.0 | 0.00 | 0.00 | 0.00 | 34 | 1021.6 |
| 20260502201520 | 75 | 290 | 5.0 | 6.0 | 0.00 | 0.00 | 0.00 | 33 | 1021.6 |
| 20260502201016 | 74 | 327 | 2.0 | 2.0 | 0.00 | 0.00 | 0.00 | 32 | 1021.5 |
| 20260502200512 | 75 | 292 | 5.0 | 7.0 | 0.00 | 0.00 | 0.00 | 33 | 1021.5 |
| 20260502200011 | 75 | 308 | 6.0 | 7.0 | 0.00 | 0.00 | 0.00 | 33 | 1021.8 |
| 20260502195508 | 75 | 329 | 5.0 | 7.0 | 0.00 | 0.00 | 0.00 | 37 | 1021.8 |
| 20260502195004 | 75 | 13 | 3.0 | 3.0 | 0.00 | 0.00 | 0.00 | 36 | 1021.7 |
| 20260502194501 | 75 | 45 | 3.0 | 6.0 | 0.00 | 0.00 | 0.00 | 36 | 1021.8 |
| 20260502193956 | 74 | 39 | 3.0 | 3.0 | 0.00 | 0.00 | 0.00 | 35 | 1022.1 |
| 20260502193455 | 75 | 35 | 7.0 | 10.0 | 0.00 | 0.00 | 0.00 | 34 | 1021.8 |
| 20260502192950 | 75 | 15 | 6.0 | 7.0 | 0.00 | 0.00 | 0.00 | 37 | 1022.2 |
| 20260502192447 | 74 | 351 | 4.0 | 6.0 | 0.00 | 0.00 | 0.00 | 40 | 1022.3 |
| 20260502191944 | 74 | 313 | 3.0 | 5.0 | 0.00 | 0.00 | 0.00 | 39 | 1022.2 |
| 20260502191441 | 74 | 303 | 7.0 | 8.0 | 0.00 | 0.00 | 0.00 | 35 | 1022.3 |
| 20260502190939 | 74 | 325 | 8.0 | 10.0 | 0.00 | 0.00 | 0.00 | 34 | 1022.4 |
| 20260502190436 | 74 | 31 | 1.0 | 2.0 | 0.00 | 0.00 | 0.00 | 36 | 1022.5 |
| 20260502185932 | 74 | 67 | 4.0 | 6.0 | 0.00 | 0.00 | 0.00 | 36 | 1022.6 |
| 20260502185428 | 74 | 40 | 5.0 | 8.0 | 0.00 | 0.00 | 0.00 | 34 | 1022.4 |
| 20260502184925 | 74 | 351 | 4.0 | 6.0 | 0.00 | 0.00 | 0.00 | 38 | 1022.5 |
| 20260502184420 | 75 | 65 | 5.0 | 7.0 | 0.00 | 0.00 | 0.00 | 37 | 1022.5 |
| 20260502183917 | 75 | 342 | 4.0 | 5.0 | 0.00 | 0.00 | 0.00 | 31 | 1022.6 |
| 20260502183413 | 74 | 349 | 3.0 | 5.0 | 0.00 | 0.00 | 0.00 | 36 | 1022.8 |
| 20260502182909 | 74 | 10 | 3.0 | 3.0 | 0.00 | 0.00 | 0.00 | 38 | 1022.8 |
| 20260502182405 | 73 | 63 | 3.0 | 3.0 | 0.00 | 0.00 | 0.00 | 33 | 1022.9 |
| 20260502181901 | 73 | 301 | 7.0 | 9.0 | 0.00 | 0.00 | 0.00 | 33 | 1022.9 |
| 20260502181359 | 74 | 312 | 5.0 | 6.0 | 0.00 | 0.00 | 0.00 | 34 | 1023.0 |
| 20260502180857 | 74 | 359 | 2.0 | 3.0 | 0.00 | 0.00 | 0.00 | 33 | 1023.0 |
| 20260502180354 | 74 | 63 | 1.0 | 2.0 | 0.00 | 0.00 | 0.00 | 32 | 1023.2 |
| 20260502170313 | 72 | 35 | 2.0 | 2.0 | 0.00 | 0.00 | 0.00 | 32 | 1023.4 |
| 20260502164301 | 71 | 70 | 2.0 | 3.0 | 0.00 | 0.00 | 0.00 | 36 | 1023.7 |
| 20260502163756 | 71 | 40 | 3.0 | 3.0 | 0.00 | 0.00 | 0.00 | 39 | 1023.7 |
| 20260502163253 | 71 | 73 | 3.0 | 3.0 | 0.00 | 0.00 | 0.00 | 36 | 1023.5 |
| 20260502162750 | 71 | 55 | 3.0 | 3.0 | 0.00 | 0.00 | 0.00 | 39 | 1023.6 |
| 20260502162247 | 70 | 331 | 3.0 | 3.0 | 0.00 | 0.00 | 0.00 | 42 | 1023.3 |
| 20260502161743 | 70 | 75 | 2.0 | 3.0 | 0.00 | 0.00 | 0.00 | 40 | 1023.6 |
| 20260502161239 | 70 | 44 | 3.0 | 3.0 | 0.00 | 0.00 | 0.00 | 41 | 1023.6 |
| 20260502160737 | 70 | 74 | 3.0 | 5.0 | 0.00 | 0.00 | 0.00 | 39 | 1023.5 |
| 20260502160236 | 69 | 36 | 4.0 | 5.0 | 0.00 | 0.00 | 0.00 | 38 | 1023.5 |
| 20260502152200 | 68 | 35 | 3.0 | 5.0 | 0.00 | 0.00 | 0.00 | 46 | 1023.3 |
| 20260502151658 | 67 | 52 | 3.0 | 3.0 | 0.00 | 0.00 | 0.00 | 46 | 1023.3 |
| 20260502151155 | 66 | 58 | 2.0 | 2.0 | 0.00 | 0.00 | 0.00 | 52 | 1023.3 |
| 20260502150652 | 66 | 38 | 3.0 | 3.0 | 0.00 | 0.00 | 0.00 | 49 | 1023.2 |
| 20260502150148 | 66 | 48 | 2.0 | 3.0 | 0.00 | 0.00 | 0.00 | 51 | 1023.1 |
| 20260502140112 | 60 | 56 | 2.0 | 2.0 | 0.00 | 0.00 | 0.00 | 68 | 1023.0 |
| 20260502130537 | 55 | 40 | 2.0 | 2.0 | 0.00 | 0.00 | 0.00 | 76 | 1022.2 |
| 20260502123520 | 52 | 21 | 2.0 | 2.0 | 0.00 | 0.00 | 0.00 | 80 | 1022.0 |
| 20260502123017 | 52 | 23 | 2.0 | 3.0 | 0.00 | 0.00 | 0.00 | 80 | 1021.8 |
| 20260502122513 | 51 | 36 | 1.0 | 2.0 | 0.00 | 0.00 | 0.00 | 80 | 1021.6 |
| 20260502122011 | 51 | 19 | 1.0 | 1.0 | 0.00 | 0.00 | 0.00 | 81 | 1021.8 |
| 20260502121508 | 50 | 5 | 1.0 | 1.0 | 0.00 | 0.00 | 0.00 | 81 | 1021.6 |
| 20260502121005 | 50 | 5 | 1.0 | 2.0 | 0.00 | 0.00 | 0.00 | 82 | 1021.4 |
| 20260502120501 | 49 | 5 | 1.0 | 1.0 | 0.00 | 0.00 | 0.00 | 83 | 1021.3 |
| 20260502115456 | 49 | 349 | 2.0 | 2.0 | 0.00 | 0.00 | 0.00 | 84 | 1021.2 |
| 20260502114952 | 49 | 340 | 1.0 | 1.0 | 0.00 | 0.00 | 0.00 | 84 | 1021.1 |
| 20260502114449 | 49 | 338 | 2.0 | 2.0 | 0.00 | 0.00 | 0.00 | 84 | 1021.1 |
| 20260502113946 | 49 | 326 | 1.0 | 2.0 | 0.00 | 0.00 | 0.00 | 84 | 1021.2 |
| 20260502113443 | 50 | 302 | 2.0 | 3.0 | 0.00 | 0.00 | 0.00 | 83 | 1021.3 |
| 20260502112942 | 50 | 289 | 3.0 | 3.0 | 0.00 | 0.00 | 0.00 | 83 | 1021.1 |
| 20260502112439 | 50 | 286 | 3.0 | 3.0 | 0.00 | 0.00 | 0.00 | 83 | 1021.1 |
| 20260502111937 | 49 | 294 | 3.0 | 3.0 | 0.00 | 0.00 | 0.00 | 83 | 1020.9 |
| 20260502111433 | 49 | 295 | 1.0 | 2.0 | 0.00 | 0.00 | 0.00 | 83 | 1020.8 |
| 20260502110931 | 49 | 337 | 2.0 | 2.0 | 0.00 | 0.00 | 0.00 | 85 | 1020.5 |
| 20260502110429 | 49 | 12 | 0.0 | 0.0 | 0.00 | 0.00 | 0.00 | 85 | 1020.5 |
| 20260502105926 | 49 | 27 | 1.0 | 1.0 | 0.00 | 0.00 | 0.00 | 87 | 1020.3 |
| 20260502105423 | 49 | 27 | 0.0 | 0.0 | 0.00 | 0.00 | 0.00 | 87 | 1020.5 |
| 20260502104921 | 49 | 27 | 1.0 | 1.0 | 0.00 | 0.00 | 0.00 | 87 | 1020.3 |
| 20260502104418 | 49 | 27 | 1.0 | 1.0 | 0.00 | 0.00 | 0.00 | 87 | 1020.0 |
| 20260502103915 | 49 | 3 | 0.0 | 1.0 | 0.00 | 0.00 | 0.00 | 87 | 1020.1 |
| 20260502103413 | 49 | 336 | 0.0 | 0.0 | 0.00 | 0.00 | 0.00 | 87 | 1020.2 |
| 20260502102910 | 50 | 336 | 1.0 | 1.0 | 0.00 | 0.00 | 0.00 | 86 | 1020.1 |
| 20260502102406 | 50 | 325 | 2.0 | 2.0 | 0.00 | 0.00 | 0.00 | 86 | 1020.3 |
| 20260502101904 | 50 | 323 | 2.0 | 2.0 | 0.00 | 0.00 | 0.00 | 85 | 1020.2 |
| 20260502101402 | 50 | 304 | 2.0 | 2.0 | 0.00 | 0.00 | 0.00 | 85 | 1020.2 |
| 20260502100900 | 50 | 292 | 3.0 | 3.0 | 0.00 | 0.00 | 0.00 | 85 | 1020.3 |
| 20260502100359 | 50 | 314 | 2.0 | 2.0 | 0.00 | 0.00 | 0.00 | 85 | 1020.3 |
| 20260502091332 | 50 | 321 | 1.0 | 2.0 | 0.00 | 0.00 | 0.00 | 86 | 1020.2 |
| 20260502090830 | 50 | 331 | 1.0 | 1.0 | 0.00 | 0.00 | 0.00 | 88 | 1019.9 |
| 20260502090326 | 50 | 331 | 1.0 | 2.0 | 0.00 | 0.00 | 0.00 | 89 | 1020.0 |
| 20260502071216 | 52 | 254 | 2.0 | 2.0 | 0.00 | 0.00 | 0.00 | 92 | 1020.1 |
| 20260502070714 | 52 | 245 | 2.0 | 2.0 | 0.00 | 0.00 | 0.00 | 91 | 1020.2 |
| 20260502070211 | 53 | 245 | 2.0 | 2.0 | 0.00 | 0.00 | 0.00 | 91 | 1020.0 |
| 20260502065710 | 53 | 255 | 3.0 | 3.0 | 0.00 | 0.00 | 0.00 | 91 | 1020.3 |
| 20260502065207 | 53 | 257 | 2.0 | 2.0 | 0.00 | 0.00 | 0.00 | 92 | 1020.2 |
| 20260502064706 | 53 | 258 | 2.0 | 2.0 | 0.00 | 0.00 | 0.00 | 92 | 1020.2 |
| 20260502064202 | 53 | 255 | 2.0 | 2.0 | 0.00 | 0.00 | 0.00 | 92 | 1020.1 |
| 20260502063700 | 53 | 254 | 2.0 | 2.0 | 0.00 | 0.00 | 0.00 | 92 | 1020.0 |
| 20260502063158 | 53 | 252 | 2.0 | 2.0 | 0.00 | 0.00 | 0.00 | 91 | 1020.1 |
| 20260502062655 | 53 | 255 | 1.0 | 2.0 | 0.00 | 0.00 | 0.00 | 91 | 1020.1 |
| 20260502062152 | 54 | 254 | 1.0 | 2.0 | 0.00 | 0.00 | 0.00 | 91 | 1020.4 |
| 20260502061651 | 54 | 260 | 1.0 | 2.0 | 0.00 | 0.00 | 0.00 | 91 | 1020.1 |
| 20260502061148 | 54 | 262 | 2.0 | 2.0 | 0.00 | 0.00 | 0.00 | 92 | 1020.1 |
| 20260502060643 | 54 | 293 | 1.0 | 1.0 | 0.00 | 0.00 | 0.00 | 92 | 1020.4 |
| 20260502060140 | 54 | 293 | 2.0 | 3.0 | 0.00 | 0.00 | 0.00 | 93 | 1020.4 |
| 20260502055637 | 54 | 279 | 2.0 | 2.0 | 0.00 | 0.00 | 0.00 | 93 | 1020.3 |
| 20260502055135 | 54 | 256 | 2.0 | 2.0 | 0.00 | 0.00 | 0.00 | 93 | 1020.2 |
| 20260502054634 | 54 | 263 | 2.0 | 2.0 | 0.00 | 0.00 | 0.00 | 93 | 1020.6 |
| 20260502054131 | 54 | 306 | 1.0 | 1.0 | 0.00 | 0.00 | 0.00 | 93 | 1020.5 |
| 20260502053628 | 54 | 307 | 1.0 | 1.0 | 0.00 | 0.00 | 0.00 | 93 | 1020.3 |
| 20260502053125 | 54 | 307 | 0.0 | 0.0 | 0.00 | 0.00 | 0.00 | 93 | 1020.4 |
| 20260502052624 | 55 | 307 | 0.0 | 0.0 | 0.00 | 0.00 | 0.00 | 93 | 1020.2 |
| 20260502052122 | 55 | 307 | 1.0 | 1.0 | 0.00 | 0.00 | 0.00 | 94 | 1020.4 |
| 20260502051619 | 54 | 257 | 1.0 | 1.0 | 0.00 | 0.00 | 0.00 | 94 | 1020.4 |
| 20260502051117 | 55 | 256 | 1.0 | 1.0 | 0.00 | 0.00 | 0.00 | 94 | 1020.2 |
| 20260502050613 | 55 | 256 | 1.0 | 1.0 | 0.00 | 0.00 | 0.00 | 94 | 1020.0 |
| 20260502050109 | 55 | 256 | 1.0 | 1.0 | 0.00 | 0.00 | 0.00 | 94 | 1020.0 |
| 20260502045605 | 55 | 258 | 2.0 | 2.0 | 0.00 | 0.01 | 0.01 | 94 | 1020.0 |
| 20260502045103 | 55 | 79 | 2.0 | 2.0 | 0.00 | 0.01 | 0.01 | 94 | 1020.1 |
| 20260502044559 | 55 | 79 | 0.0 | 0.0 | 0.00 | 0.01 | 0.01 | 94 | 1019.9 |
| 20260502044056 | 55 | 79 | 0.0 | 0.0 | 0.00 | 0.01 | 0.01 | 93 | 1020.1 |
| 20260502043554 | 56 | 79 | 0.0 | 1.0 | 0.00 | 0.01 | 0.01 | 93 | 1020.1 |
| 20260502043050 | 56 | 79 | 0.0 | 0.0 | 0.00 | 0.01 | 0.01 | 93 | 1020.1 |
| 20260502042544 | 56 | 79 | 0.0 | 0.0 | 0.00 | 0.01 | 0.01 | 93 | 1020.2 |
| 20260502042042 | 56 | 79 | 0.0 | 0.0 | 0.00 | 0.01 | 0.01 | 93 | 1020.2 |
| 20260502041540 | 56 | 79 | 0.0 | 0.0 | 0.00 | 0.01 | 0.01 | 92 | 1020.2 |
| 20260502041037 | 57 | 79 | 0.0 | 0.0 | 0.00 | 0.01 | 0.01 | 92 | 1020.3 |
| 20260502040533 | 57 | 79 | 0.0 | 1.0 | 0.00 | 0.01 | 0.01 | 92 | 1020.3 |
| 20260502040031 | 57 | 79 | 0.0 | 0.0 | 0.00 | 0.01 | 0.01 | 91 | 1020.0 |
| 20260502035526 | 57 | 79 | 1.0 | 1.0 | 0.00 | 0.01 | 0.01 | 91 | 1020.2 |
| 20260502035024 | 57 | 79 | 0.0 | 0.0 | 0.00 | 0.01 | 0.01 | 90 | 1020.2 |
| 20260502034522 | 57 | 79 | 0.0 | 0.0 | 0.00 | 0.01 | 0.01 | 90 | 1020.3 |
| 20260502034020 | 57 | 79 | 1.0 | 1.0 | 0.00 | 0.01 | 0.01 | 89 | 1020.1 |
| 20260502033518 | 57 | 79 | 0.0 | 0.0 | 0.00 | 0.01 | 0.01 | 89 | 1020.1 |
| 20260502033015 | 57 | 79 | 0.0 | 0.0 | 0.00 | 0.01 | 0.01 | 89 | 1020.1 |
| 20260502032511 | 58 | 79 | 0.0 | 0.0 | 0.00 | 0.01 | 0.01 | 89 | 1020.0 |
| 20260502032008 | 58 | 79 | 0.0 | 0.0 | 0.00 | 0.01 | 0.01 | 89 | 1019.9 |
| 20260502031506 | 58 | 79 | 0.0 | 0.0 | 0.00 | 0.01 | 0.01 | 89 | 1019.8 |
| 20260502031004 | 58 | 79 | 0.0 | 0.0 | 0.00 | 0.01 | 0.01 | 89 | 1020.1 |
| 20260502030502 | 58 | 79 | 2.0 | 2.0 | 0.00 | 0.01 | 0.01 | 89 | 1020.1 |
| 20260502025959 | 58 | 79 | 1.0 | 1.0 | 0.00 | 0.01 | 0.01 | 89 | 1019.9 |
| 20260502025456 | 58 | 79 | 0.0 | 1.0 | 0.00 | 0.01 | 0.01 | 89 | 1020.2 |
| 20260502024954 | 58 | 79 | 0.0 | 1.0 | 0.00 | 0.01 | 0.01 | 89 | 1020.1 |
| 20260502024452 | 58 | 79 | 0.0 | 1.0 | 0.00 | 0.01 | 0.01 | 88 | 1019.7 |
| 20260502023950 | 59 | 79 | 1.0 | 1.0 | 0.00 | 0.01 | 0.01 | 88 | 1019.9 |
| 20260502023447 | 59 | 79 | 0.0 | 0.0 | 0.00 | 0.01 | 0.01 | 87 | 1019.7 |
| 20260502022944 | 59 | 79 | 0.0 | 1.0 | 0.00 | 0.01 | 0.01 | 86 | 1019.8 |
| 20260502022441 | 59 | 79 | 1.0 | 1.0 | 0.00 | 0.01 | 0.01 | 85 | 1019.6 |
| 20260502021938 | 59 | 79 | 1.0 | 1.0 | 0.00 | 0.01 | 0.01 | 85 | 1019.5 |
| 20260502021435 | 59 | 79 | 0.0 | 0.0 | 0.00 | 0.01 | 0.01 | 85 | 1019.2 |
| 20260502020932 | 59 | 79 | 0.0 | 0.0 | 0.00 | 0.01 | 0.01 | 85 | 1019.2 |
| 20260502020430 | 59 | 79 | 0.0 | 1.0 | 0.00 | 0.01 | 0.01 | 84 | 1019.3 |
| 20260502015926 | 59 | 79 | 0.0 | 0.0 | 0.00 | 0.01 | 0.01 | 83 | 1019.0 |
| 20260502015425 | 59 | 79 | 1.0 | 1.0 | 0.00 | 0.01 | 0.01 | 82 | 1019.0 |
| 20260502014921 | 59 | 79 | 1.0 | 1.0 | 0.00 | 0.01 | 0.01 | 81 | 1018.8 |
| 20260502014418 | 59 | 79 | 1.0 | 1.0 | 0.00 | 0.01 | 0.01 | 81 | 1018.8 |
| 20260502013914 | 59 | 79 | 0.0 | 0.0 | 0.00 | 0.01 | 0.01 | 82 | 1018.7 |
| 20260502013410 | 59 | 79 | 0.0 | 0.0 | 0.00 | 0.01 | 0.01 | 81 | 1018.8 |
| 20260502012907 | 59 | 79 | 0.0 | 0.0 | 0.00 | 0.01 | 0.01 | 81 | 1018.7 |
| 20260502012405 | 59 | 79 | 0.0 | 0.0 | 0.00 | 0.01 | 0.01 | 81 | 1018.4 |
| 20260502011902 | 60 | 79 | 1.0 | 1.0 | 0.00 | 0.01 | 0.01 | 82 | 1018.6 |
| 20260502011358 | 60 | 79 | 1.0 | 1.0 | 0.00 | 0.01 | 0.01 | 81 | 1018.5 |
| 20260502010855 | 60 | 79 | 1.0 | 1.0 | 0.00 | 0.01 | 0.01 | 80 | 1018.5 |
| 20260502010351 | 60 | 79 | 1.0 | 1.0 | 0.00 | 0.01 | 0.01 | 79 | 1018.5 |
| 20260502005848 | 60 | 79 | 0.0 | 0.0 | 0.00 | 0.01 | 0.01 | 79 | 1018.3 |
| 20260502005346 | 60 | 79 | 0.0 | 0.0 | 0.00 | 0.01 | 0.01 | 78 | 1018.1 |
| 20260502004843 | 60 | 79 | 0.0 | 0.0 | 0.00 | 0.01 | 0.01 | 76 | 1018.2 |
| 20260502004339 | 60 | 79 | 0.0 | 0.0 | 0.00 | 0.01 | 0.01 | 75 | 1018.2 |
| 20260502003837 | 60 | 79 | 0.0 | 0.0 | 0.00 | 0.01 | 0.01 | 75 | 1017.9 |
| 20260502003334 | 61 | 79 | 0.0 | 0.0 | 0.00 | 0.01 | 0.01 | 74 | 1017.8 |
| 20260502002830 | 61 | 79 | 0.0 | 0.0 | 0.00 | 0.01 | 0.01 | 73 | 1017.9 |
| 20260502002328 | 61 | 79 | 0.0 | 0.0 | 0.00 | 0.01 | 0.01 | 73 | 1017.6 |
| 20260502001825 | 62 | 79 | 1.0 | 1.0 | 0.00 | 0.01 | 0.01 | 72 | 1017.6 |
| 20260502001323 | 62 | 78 | 1.0 | 1.0 | 0.00 | 0.01 | 0.01 | 70 | 1017.5 |
| 20260502000820 | 62 | 85 | 1.0 | 1.0 | 0.00 | 0.01 | 0.01 | 68 | 1017.5 |
| 20260502000318 | 62 | 89 | 1.0 | 1.0 | 0.00 | 0.01 | 0.01 | 67 | 1017.2 |
| 20260501235814 | 62 | 92 | 1.0 | 1.0 | 0.00 | 0.01 | 0.01 | 68 | 1017.3 |
| 20260501235309 | 62 | 97 | 2.0 | 2.0 | 0.00 | 0.01 | 0.01 | 69 | 1017.3 |
| 20260501234805 | 62 | 91 | 3.0 | 3.0 | 0.00 | 0.01 | 0.01 | 69 | 1017.3 |
| 20260501234302 | 62 | 92 | 1.0 | 1.0 | 0.00 | 0.01 | 0.01 | 69 | 1017.1 |
| 20260501233801 | 62 | 77 | 1.0 | 1.0 | 0.00 | 0.01 | 0.01 | 69 | 1017.0 |
| 20260501233258 | 62 | 71 | 2.0 | 2.0 | 0.00 | 0.01 | 0.01 | 67 | 1016.9 |
| 20260501232753 | 62 | 80 | 2.0 | 3.0 | 0.00 | 0.01 | 0.01 | 68 | 1017.0 |
| 20260501232250 | 62 | 75 | 2.0 | 2.0 | 0.00 | 0.01 | 0.01 | 65 | 1016.9 |
| 20260501231748 | 63 | 80 | 1.0 | 2.0 | 0.00 | 0.01 | 0.01 | 65 | 1017.0 |
| 20260501231246 | 63 | 69 | 3.0 | 3.0 | 0.00 | 0.01 | 0.01 | 65 | 1017.0 |
| 20260501230744 | 63 | 89 | 2.0 | 2.0 | 0.00 | 0.01 | 0.01 | 65 | 1017.0 |
| 20260501230243 | 63 | 91 | 2.0 | 2.0 | 0.00 | 0.01 | 0.01 | 66 | 1016.8 |
| 20260501225740 | 63 | 94 | 2.0 | 3.0 | 0.00 | 0.01 | 0.01 | 63 | 1016.8 |
| 20260501225237 | 63 | 82 | 2.0 | 2.0 | 0.00 | 0.01 | 0.01 | 66 | 1016.8 |
| 20260501224733 | 62 | 72 | 0.0 | 1.0 | 0.00 | 0.01 | 0.01 | 66 | 1016.6 |
| 20260501224231 | 62 | 80 | 1.0 | 1.0 | 0.00 | 0.01 | 0.01 | 67 | 1016.7 |
| 20260501223727 | 62 | 81 | 2.0 | 2.0 | 0.00 | 0.01 | 0.01 | 66 | 1016.7 |
| 20260501223223 | 62 | 89 | 3.0 | 5.0 | 0.00 | 0.01 | 0.01 | 65 | 1016.7 |
| 20260501222719 | 62 | 96 | 4.0 | 5.0 | 0.00 | 0.01 | 0.01 | 64 | 1016.7 |
| 20260501222217 | 63 | 78 | 3.0 | 3.0 | 0.00 | 0.01 | 0.01 | 64 | 1016.5 |
| 20260501221713 | 63 | 92 | 5.0 | 6.0 | 0.00 | 0.01 | 0.01 | 63 | 1016.5 |
| 20260501221210 | 63 | 88 | 2.0 | 3.0 | 0.00 | 0.01 | 0.01 | 65 | 1016.7 |
| 20260501220708 | 63 | 77 | 6.0 | 7.0 | 0.00 | 0.01 | 0.01 | 61 | 1016.7 |